Time,TemperatureF,DewpointF,PressureIn,WindDirection,WindDirectionDegrees,WindSpeedMPH,WindSpeedGustMPH,Humidity,HourlyPrecipIn,Conditions,Clouds,dailyrainin,SoftwareType,DateUTC
2013-04-08 00:02:00,34.1,31.2,29.80,NE,53,0.0,3.0,89,0.00,,,0.00,WUHU216DAVISVP2,2013-04-08 05:02:00,
2013-04-08 00:07:00,34.1,31.2,29.81,NE,49,0.0,3.0,89,0.00,,,0.00,WUHU216DAVISVP2,2013-04-08 05:07:00,
2013-04-08 00:12:00,34.1,31.2,29.81,NE,49,0.0,0.0,89,0.00,,,0.00,WUHU216DAVISVP2,2013-04-08 05:12:00,
2013-04-08 00:17:00,34.1,31.2,29.81,North,5,0.0,5.0,89,0.00,,,0.00,WUHU216DAVISVP2,2013-04-08 05:17:00,
2013-04-08 00:22:00,34.0,31.1,29.81,North,360,0.0,5.0,89,0.00,,,0.00,WUHU216DAVISVP2,2013-04-08 05:22:00,
2013-04-08 00:27:00,34.0,31.1,29.80,North,5,0.0,0.0,89,0.00,,,0.00,WUHU216DAVISVP2,2013-04-08 05:27:00,
2013-04-08 00:32:00,34.0,31.1,29.80,North,5,0.0,0.0,89,0.00,,,0.00,WUHU216DAVISVP2,2013-04-08 05:32:00,
2013-04-08 00:37:00,34.1,31.2,29.81,North,5,0.0,0.0,89,0.00,,,0.00,WUHU216DAVISVP2,2013-04-08 05:37:00,
2013-04-08 00:42:00,34.1,31.2,29.81,North,360,0.0,5.0,89,0.00,,,0.00,WUHU216DAVISVP2,2013-04-08 05:42:00,
2013-04-08 00:47:00,34.1,30.9,29.81,North,5,0.0,5.0,88,0.00,,,0.00,WUHU216DAVISVP2,2013-04-08 05:47:00,
2013-04-08 00:52:00,34.1,30.9,29.81,North,5,0.0,0.0,88,0.00,,,0.00,WUHU216DAVISVP2,2013-04-08 05:52:00,
2013-04-08 00:57:00,34.1,30.9,29.81,North,5,0.0,0.0,88,0.00,,,0.00,WUHU216DAVISVP2,2013-04-08 05:57:00,
2013-04-08 01:02:00,34.0,31.1,29.81,North,360,2.0,3.0,89,0.00,,,0.00,WUHU216DAVISVP2,2013-04-08 06:02:00,
2013-04-08 01:07:00,33.9,31.0,29.81,North,5,3.0,4.0,89,0.00,,,0.00,WUHU216DAVISVP2,2013-04-08 06:07:00,
2013-04-08 01:12:00,33.8,30.9,29.81,North,5,4.0,5.0,89,0.00,,,0.00,WUHU216DAVISVP2,2013-04-08 06:12:00,
2013-04-08 01:17:00,33.6,30.4,29.81,North,5,2.0,6.0,88,0.00,,,0.00,WUHU216DAVISVP2,2013-04-08 06:17:00,
2013-04-08 01:22:00,33.5,30.6,29.82,North,360,5.0,6.0,89,0.00,,,0.00,WUHU216DAVISVP2,2013-04-08 06:22:00,
2013-04-08 01:27:00,33.5,30.6,29.82,North,5,1.0,5.0,89,0.00,,,0.00,WUHU216DAVISVP2,2013-04-08 06:27:00,
2013-04-08 01:32:00,33.5,30.6,29.82,North,360,3.0,5.0,89,0.00,,,0.00,WUHU216DAVISVP2,2013-04-08 06:32:00,
2013-04-08 01:37:00,33.5,30.6,29.82,North,5,3.0,7.0,89,0.00,,,0.00,WUHU216DAVISVP2,2013-04-08 06:37:00,
2013-04-08 01:42:00,33.4,30.5,29.81,North,355,2.0,7.0,89,0.00,,,0.00,WUHU216DAVISVP2,2013-04-08 06:42:00,
2013-04-08 01:47:00,33.5,30.6,29.81,North,360,3.0,6.0,89,0.00,,,0.00,WUHU216DAVISVP2,2013-04-08 06:47:00,
2013-04-08 01:52:00,33.5,30.6,29.81,North,5,3.0,6.0,89,0.00,,,0.00,WUHU216DAVISVP2,2013-04-08 06:52:00,
2013-04-08 01:57:00,33.4,30.5,29.81,NNE,17,3.0,6.0,89,0.00,,,0.00,WUHU216DAVISVP2,2013-04-08 06:57:00,
2013-04-08 02:02:00,33.4,30.5,29.81,North,360,2.0,7.0,89,0.00,,,0.00,WUHU216DAVISVP2,2013-04-08 07:02:00,
2013-04-08 02:07:00,33.4,30.5,29.81,North,5,10.0,10.0,89,0.00,,,0.00,WUHU216DAVISVP2,2013-04-08 07:07:00,
2013-04-08 02:12:00,33.4,30.5,29.81,North,360,2.0,10.0,89,0.00,,,0.00,WUHU216DAVISVP2,2013-04-08 07:12:00,
2013-04-08 02:17:00,33.4,30.5,29.81,North,5,2.0,7.0,89,0.00,,,0.00,WUHU216DAVISVP2,2013-04-08 07:17:00,
2013-04-08 02:22:00,33.3,30.4,29.81,NNE,17,1.0,9.0,89,0.00,,,0.00,WUHU216DAVISVP2,2013-04-08 07:22:00,
2013-04-08 02:27:00,33.3,30.4,29.81,NNE,14,3.0,9.0,89,0.00,,,0.00,WUHU216DAVISVP2,2013-04-08 07:27:00,
2013-04-08 02:32:00,33.3,30.4,29.81,North,10,4.0,11.0,89,0.00,,,0.00,WUHU216DAVISVP2,2013-04-08 07:32:00,
2013-04-08 02:37:00,33.3,30.4,29.81,North,5,6.0,11.0,89,0.00,,,0.00,WUHU216DAVISVP2,2013-04-08 07:37:00,
2013-04-08 02:42:00,33.3,30.4,29.81,North,355,4.0,9.0,89,0.00,,,0.00,WUHU216DAVISVP2,2013-04-08 07:42:00,
2013-04-08 02:48:00,33.3,30.4,29.81,NNE,16,5.0,8.0,89,0.00,,,0.00,WUHU216DAVISVP2,2013-04-08 07:48:00,
2013-04-08 02:53:00,33.3,30.4,29.82,NNE,15,4.0,8.0,89,0.00,,,0.00,WUHU216DAVISVP2,2013-04-08 07:53:00,
2013-04-08 02:58:00,33.3,30.4,29.81,NE,44,2.0,7.0,89,0.00,,,0.00,WUHU216DAVISVP2,2013-04-08 07:58:00,
2013-04-08 03:03:00,33.3,30.4,29.82,NNE,17,2.0,7.0,89,0.00,,,0.00,WUHU216DAVISVP2,2013-04-08 08:03:00,
2013-04-08 03:08:00,33.3,30.4,29.81,NNE,19,2.0,9.0,89,0.00,,,0.00,WUHU216DAVISVP2,2013-04-08 08:08:00,
2013-04-08 03:13:00,33.3,30.4,29.82,NNE,26,0.0,9.0,89,0.00,,,0.00,WUHU216DAVISVP2,2013-04-08 08:13:00,
2013-04-08 03:18:00,33.3,30.4,29.82,North,9,1.0,9.0,89,0.00,,,0.00,WUHU216DAVISVP2,2013-04-08 08:18:00,
2013-04-08 03:23:00,33.3,30.4,29.81,North,11,4.0,9.0,89,0.00,,,0.00,WUHU216DAVISVP2,2013-04-08 08:23:00,
2013-04-08 03:28:00,33.3,30.4,29.81,North,5,2.0,6.0,89,0.00,,,0.00,WUHU216DAVISVP2,2013-04-08 08:28:00,
2013-04-08 03:33:00,33.4,30.5,29.81,NNE,28,2.0,6.0,89,0.00,,,0.00,WUHU216DAVISVP2,2013-04-08 08:33:00,
2013-04-08 03:38:00,33.4,30.5,29.81,NNE,20,4.0,10.0,89,0.00,,,0.00,WUHU216DAVISVP2,2013-04-08 08:38:00,
2013-04-08 03:43:00,33.3,30.4,29.82,NNE,24,4.0,10.0,89,0.00,,,0.00,WUHU216DAVISVP2,2013-04-08 08:43:00,
2013-04-08 03:48:00,33.3,30.4,29.82,NE,37,8.0,8.0,89,0.00,,,0.00,WUHU216DAVISVP2,2013-04-08 08:48:00,
2013-04-08 03:53:00,33.3,30.6,29.82,North,5,3.0,9.0,90,0.00,,,0.00,WUHU216DAVISVP2,2013-04-08 08:53:00,
2013-04-08 03:58:00,33.3,30.6,29.82,North,11,5.0,9.0,90,0.00,,,0.00,WUHU216DAVISVP2,2013-04-08 08:58:00,
2013-04-08 04:03:00,33.3,30.6,29.82,North,11,2.0,6.0,90,0.00,,,0.00,WUHU216DAVISVP2,2013-04-08 09:03:00,
2013-04-08 04:08:00,33.2,30.5,29.81,North,11,7.0,10.0,90,0.00,,,0.00,WUHU216DAVISVP2,2013-04-08 09:08:00,
2013-04-08 04:13:00,33.2,30.5,29.81,NNE,15,3.0,10.0,90,0.00,,,0.00,WUHU216DAVISVP2,2013-04-08 09:13:00,
2013-04-08 04:18:00,33.2,30.5,29.81,NNE,13,3.0,7.0,90,0.00,,,0.00,WUHU216DAVISVP2,2013-04-08 09:18:00,
2013-04-08 04:23:00,33.2,30.5,29.81,NNE,26,0.0,7.0,90,0.00,,,0.00,WUHU216DAVISVP2,2013-04-08 09:23:00,
2013-04-08 04:28:00,33.2,30.5,29.82,North,11,3.0,7.0,90,0.00,,,0.00,WUHU216DAVISVP2,2013-04-08 09:28:00,
2013-04-08 04:33:00,33.2,30.5,29.82,North,10,5.0,7.0,90,0.00,,,0.00,WUHU216DAVISVP2,2013-04-08 09:33:00,
2013-04-08 04:38:00,33.2,30.5,29.82,NNE,26,3.0,7.0,90,0.00,,,0.00,WUHU216DAVISVP2,2013-04-08 09:38:00,
2013-04-08 04:43:00,33.2,30.5,29.82,North,5,2.0,7.0,90,0.00,,,0.00,WUHU216DAVISVP2,2013-04-08 09:43:00,
2013-04-08 04:48:00,33.2,30.5,29.83,North,5,3.0,6.0,90,0.00,,,0.00,WUHU216DAVISVP2,2013-04-08 09:48:00,
2013-04-08 04:53:00,33.2,30.5,29.83,NNE,17,5.0,9.0,90,0.00,,,0.00,WUHU216DAVISVP2,2013-04-08 09:53:00,
2013-04-08 04:58:00,33.2,30.5,29.83,NNE,18,0.0,9.0,90,0.00,,,0.00,WUHU216DAVISVP2,2013-04-08 09:58:00,
2013-04-08 05:03:00,33.3,30.6,29.83,NNE,22,2.0,6.0,90,0.00,,,0.00,WUHU216DAVISVP2,2013-04-08 10:03:00,
2013-04-08 05:08:00,33.3,30.6,29.83,NNE,22,2.0,7.0,90,0.00,,,0.00,WUHU216DAVISVP2,2013-04-08 10:08:00,
2013-04-08 05:13:00,33.3,30.6,29.83,North,355,3.0,7.0,90,0.00,,,0.00,WUHU216DAVISVP2,2013-04-08 10:13:00,
2013-04-08 05:18:00,33.3,30.6,29.83,North,11,5.0,7.0,90,0.00,,,0.00,WUHU216DAVISVP2,2013-04-08 10:18:00,
2013-04-08 05:23:00,33.2,30.5,29.83,NNE,14,3.0,9.0,90,0.00,,,0.00,WUHU216DAVISVP2,2013-04-08 10:23:00,
2013-04-08 05:28:00,33.1,30.4,29.83,NNE,30,2.0,9.0,90,0.00,,,0.00,WUHU216DAVISVP2,2013-04-08 10:28:00,
2013-04-08 05:33:00,33.1,30.4,29.83,North,5,5.0,10.0,90,0.00,,,0.00,WUHU216DAVISVP2,2013-04-08 10:33:00,
2013-04-08 05:38:00,33.0,30.3,29.84,North,10,5.0,10.0,90,0.00,,,0.00,WUHU216DAVISVP2,2013-04-08 10:38:00,
2013-04-08 05:43:00,33.0,30.3,29.84,NNE,19,4.0,12.0,90,0.00,,,0.00,WUHU216DAVISVP2,2013-04-08 10:43:00,
2013-04-08 05:48:00,33.0,30.3,29.83,NNE,21,7.0,12.0,90,0.00,,,0.00,WUHU216DAVISVP2,2013-04-08 10:48:00,
2013-04-08 05:53:00,32.9,30.2,29.83,North,10,6.0,11.0,90,0.00,,,0.00,WUHU216DAVISVP2,2013-04-08 10:53:00,
2013-04-08 05:58:00,32.9,30.2,29.83,NNE,16,4.0,10.0,90,0.00,,,0.00,WUHU216DAVISVP2,2013-04-08 10:58:00,
2013-04-08 06:03:00,32.9,30.2,29.83,North,5,8.0,11.0,90,0.00,,,0.00,WUHU216DAVISVP2,2013-04-08 11:03:00,
2013-04-08 06:08:00,32.9,30.2,29.83,NNE,30,6.0,12.0,90,0.00,,,0.00,WUHU216DAVISVP2,2013-04-08 11:08:00,
2013-04-08 06:13:00,32.9,30.2,29.83,North,10,6.0,13.0,90,0.00,,,0.00,WUHU216DAVISVP2,2013-04-08 11:13:00,
2013-04-08 06:18:00,32.8,30.1,29.83,NNE,21,4.0,13.0,90,0.00,,,0.00,WUHU216DAVISVP2,2013-04-08 11:18:00,
2013-04-08 06:23:00,32.8,30.1,29.83,NNE,17,3.0,9.0,90,0.00,,,0.00,WUHU216DAVISVP2,2013-04-08 11:23:00,
2013-04-08 06:28:00,32.8,30.1,29.83,NNE,19,9.0,14.0,90,0.00,,,0.00,WUHU216DAVISVP2,2013-04-08 11:28:00,
2013-04-08 06:33:00,32.9,30.2,29.83,NNE,19,5.0,14.0,90,0.00,,,0.00,WUHU216DAVISVP2,2013-04-08 11:33:00,
2013-04-08 06:38:00,32.9,30.2,29.83,NNE,22,6.0,14.0,90,0.00,,,0.00,WUHU216DAVISVP2,2013-04-08 11:38:00,
2013-04-08 06:43:00,32.9,30.2,29.83,NNE,13,4.0,12.0,90,0.00,,,0.00,WUHU216DAVISVP2,2013-04-08 11:43:00,
2013-04-08 06:48:00,32.9,30.2,29.83,NNE,14,5.0,10.0,90,0.00,,,0.00,WUHU216DAVISVP2,2013-04-08 11:48:00,
2013-04-08 06:53:00,32.9,30.2,29.84,ENE,64,4.0,11.0,90,0.00,,,0.00,WUHU216DAVISVP2,2013-04-08 11:53:00,
2013-04-08 06:58:00,32.9,30.2,29.84,NNE,13,5.0,13.0,90,0.00,,,0.00,WUHU216DAVISVP2,2013-04-08 11:58:00,
2013-04-08 07:03:00,32.9,30.2,29.84,North,11,5.0,13.0,90,0.00,,,0.00,WUHU216DAVISVP2,2013-04-08 12:03:00,
2013-04-08 07:08:00,32.8,30.1,29.84,North,5,9.0,17.0,90,0.00,,,0.00,WUHU216DAVISVP2,2013-04-08 12:08:00,
2013-04-08 07:13:00,32.8,30.1,29.84,North,11,7.0,17.0,90,0.00,,,0.00,WUHU216DAVISVP2,2013-04-08 12:13:00,
2013-04-08 07:18:00,32.8,30.1,29.84,NNE,24,5.0,12.0,90,0.00,,,0.00,WUHU216DAVISVP2,2013-04-08 12:18:00,
2013-04-08 07:23:00,32.7,30.0,29.85,North,355,2.0,12.0,90,0.00,,,0.00,WUHU216DAVISVP2,2013-04-08 12:23:00,
2013-04-08 07:28:00,32.7,30.0,29.85,North,9,6.0,12.0,90,0.00,,,0.00,WUHU216DAVISVP2,2013-04-08 12:28:00,
2013-04-08 07:33:00,32.6,29.9,29.84,NNE,13,10.0,16.0,90,0.00,,,0.00,WUHU216DAVISVP2,2013-04-08 12:33:00,
2013-04-08 07:38:00,32.7,30.0,29.84,North,360,9.0,17.0,90,0.00,,,0.00,WUHU216DAVISVP2,2013-04-08 12:38:00,
2013-04-08 07:43:00,32.6,29.7,29.84,NNE,19,11.0,18.0,89,0.00,,,0.00,WUHU216DAVISVP2,2013-04-08 12:43:00,
2013-04-08 07:48:00,32.6,29.7,29.85,NNE,26,13.0,18.0,89,0.00,,,0.00,WUHU216DAVISVP2,2013-04-08 12:48:00,
2013-04-08 07:53:00,32.6,29.7,29.85,NNE,19,7.0,17.0,89,0.00,,,0.00,WUHU216DAVISVP2,2013-04-08 12:53:00,
2013-04-08 07:58:00,32.6,29.7,29.85,North,360,7.0,18.0,89,0.00,,,0.00,WUHU216DAVISVP2,2013-04-08 12:58:00,
2013-04-08 08:03:00,32.7,29.8,29.86,North,11,5.0,18.0,89,0.00,,,0.00,WUHU216DAVISVP2,2013-04-08 13:03:00,
2013-04-08 08:08:00,32.7,29.8,29.86,NNE,21,5.0,16.0,89,0.00,,,0.00,WUHU216DAVISVP2,2013-04-08 13:08:00,
2013-04-08 08:13:00,32.7,29.5,29.86,NNE,16,8.0,14.0,88,0.00,,,0.00,WUHU216DAVISVP2,2013-04-08 13:13:00,
2013-04-08 08:18:00,32.7,29.5,29.86,NE,48,6.0,17.0,88,0.00,,,0.00,WUHU216DAVISVP2,2013-04-08 13:18:00,
2013-04-08 08:23:00,32.7,29.5,29.86,North,5,14.0,17.0,88,0.00,,,0.00,WUHU216DAVISVP2,2013-04-08 13:23:00,
2013-04-08 08:28:00,32.6,29.4,29.86,North,5,10.0,17.0,88,0.00,,,0.00,WUHU216DAVISVP2,2013-04-08 13:28:00,
2013-04-08 08:33:00,32.6,29.4,29.86,NNE,22,5.0,22.0,88,0.00,,,0.00,WUHU216DAVISVP2,2013-04-08 13:33:00,
2013-04-08 08:38:00,32.6,29.4,29.86,NNE,19,7.0,22.0,88,0.00,,,0.00,WUHU216DAVISVP2,2013-04-08 13:38:00,
2013-04-08 08:43:00,32.6,29.1,29.86,NNE,14,4.0,19.0,87,0.00,,,0.00,WUHU216DAVISVP2,2013-04-08 13:43:00,
2013-04-08 08:48:00,32.5,29.0,29.86,NNE,18,9.0,20.0,87,0.00,,,0.00,WUHU216DAVISVP2,2013-04-08 13:48:00,
2013-04-08 08:53:00,32.4,28.9,29.87,NNE,18,6.0,20.0,87,0.00,,,0.00,WUHU216DAVISVP2,2013-04-08 13:53:00,
2013-04-08 08:58:00,32.4,28.9,29.87,NNE,24,7.0,18.0,87,0.00,,,0.00,WUHU216DAVISVP2,2013-04-08 13:58:00,
2013-04-08 09:03:00,32.3,28.8,29.87,North,11,8.0,21.0,87,0.00,,,0.00,WUHU216DAVISVP2,2013-04-08 14:03:00,
2013-04-08 09:08:00,32.2,28.7,29.87,NNW,344,6.0,21.0,87,0.00,,,0.00,WUHU216DAVISVP2,2013-04-08 14:08:00,
2013-04-08 09:13:00,32.2,28.7,29.87,NE,34,11.0,20.0,87,0.00,,,0.00,WUHU216DAVISVP2,2013-04-08 14:13:00,
2013-04-08 09:18:00,32.2,28.7,29.88,North,5,7.0,20.0,87,0.00,,,0.00,WUHU216DAVISVP2,2013-04-08 14:18:00,
2013-04-08 09:23:00,32.2,28.7,29.88,North,5,12.0,18.0,87,0.00,,,0.00,WUHU216DAVISVP2,2013-04-08 14:23:00,
2013-04-08 09:28:00,32.1,28.6,29.88,North,360,12.0,18.0,87,0.00,,,0.00,WUHU216DAVISVP2,2013-04-08 14:28:00,
2013-04-08 09:33:00,31.7,28.0,29.88,North,9,11.0,19.0,86,0.00,,,0.00,WUHU216DAVISVP2,2013-04-08 14:33:00,
2013-04-08 09:38:00,31.2,27.5,29.89,NNE,23,6.0,20.0,86,0.00,,,0.00,WUHU216DAVISVP2,2013-04-08 14:38:00,
2013-04-08 09:43:00,30.9,27.5,29.89,NNE,15,13.0,21.0,87,0.00,,,0.00,WUHU216DAVISVP2,2013-04-08 14:43:00,
2013-04-08 09:48:00,30.6,26.9,29.89,North,360,11.0,21.0,86,0.00,,,0.00,WUHU216DAVISVP2,2013-04-08 14:48:00,
2013-04-08 09:53:00,30.5,27.1,29.90,North,5,9.0,21.0,87,0.00,,,0.00,WUHU216DAVISVP2,2013-04-08 14:53:00,
2013-04-08 09:58:00,30.3,26.9,29.90,NNE,24,7.0,21.0,87,0.00,,,0.00,WUHU216DAVISVP2,2013-04-08 14:58:00,
2013-04-08 10:03:00,30.1,26.7,29.90,NE,55,5.0,18.0,87,0.00,,,0.00,WUHU216DAVISVP2,2013-04-08 15:03:00,
2013-04-08 10:08:00,30.0,26.6,29.91,North,10,17.0,22.0,87,0.00,,,0.00,WUHU216DAVISVP2,2013-04-08 15:08:00,
2013-04-08 10:13:00,29.9,26.5,29.91,NNE,19,5.0,22.0,87,0.00,,,0.00,WUHU216DAVISVP2,2013-04-08 15:13:00,
2013-04-08 10:18:00,29.9,26.5,29.91,NNE,30,4.0,19.0,87,0.00,,,0.00,WUHU216DAVISVP2,2013-04-08 15:18:00,
2013-04-08 10:23:00,29.8,26.1,29.91,North,5,10.0,17.0,86,0.00,,,0.00,WUHU216DAVISVP2,2013-04-08 15:23:00,
2013-04-08 10:28:00,29.9,26.2,29.91,North,5,6.0,21.0,86,0.00,,,0.00,WUHU216DAVISVP2,2013-04-08 15:28:00,
2013-04-08 10:33:00,30.1,26.7,29.92,North,355,12.0,21.0,87,0.00,,,0.00,WUHU216DAVISVP2,2013-04-08 15:33:00,
2013-04-08 10:38:00,30.3,26.9,29.92,North,5,6.0,17.0,87,0.00,,,0.00,WUHU216DAVISVP2,2013-04-08 15:38:00,
2013-04-08 10:43:00,30.5,26.8,29.92,NNE,12,13.0,17.0,86,0.00,,,0.00,WUHU216DAVISVP2,2013-04-08 15:43:00,
2013-04-08 10:48:00,30.6,26.9,29.92,North,10,8.0,17.0,86,0.00,,,0.00,WUHU216DAVISVP2,2013-04-08 15:48:00,
2013-04-08 10:53:00,30.8,27.1,29.92,North,360,7.0,17.0,86,0.00,,,0.00,WUHU216DAVISVP2,2013-04-08 15:53:00,
2013-04-08 10:58:00,31.1,27.4,29.92,North,5,10.0,16.0,86,0.00,,,0.00,WUHU216DAVISVP2,2013-04-08 15:58:00,
2013-04-08 11:03:00,31.4,27.7,29.93,NE,49,2.0,13.0,86,0.00,,,0.00,WUHU216DAVISVP2,2013-04-08 16:03:00,
2013-04-08 11:08:00,31.8,28.1,29.93,NNE,22,7.0,13.0,86,0.00,,,0.00,WUHU216DAVISVP2,2013-04-08 16:08:00,
2013-04-08 11:13:00,32.0,28.3,29.94,NNE,17,9.0,12.0,86,0.00,,,0.00,WUHU216DAVISVP2,2013-04-08 16:13:00,
2013-04-08 11:18:00,32.1,28.4,29.94,NNE,26,5.0,14.0,86,0.00,,,0.00,WUHU216DAVISVP2,2013-04-08 16:18:00,
2013-04-08 11:23:00,32.1,28.1,29.95,North,10,6.0,14.0,85,0.00,,,0.00,WUHU216DAVISVP2,2013-04-08 16:23:00,
2013-04-08 11:28:00,31.9,27.9,29.95,NNE,19,11.0,13.0,85,0.00,,,0.00,WUHU216DAVISVP2,2013-04-08 16:28:00,
2013-04-08 11:33:00,31.8,27.8,29.95,NNE,21,6.0,15.0,85,0.00,,,0.00,WUHU216DAVISVP2,2013-04-08 16:33:00,
2013-04-08 11:38:00,32.0,28.0,29.95,North,355,8.0,15.0,85,0.00,,,0.00,WUHU216DAVISVP2,2013-04-08 16:38:00,
2013-04-08 11:43:00,31.9,27.9,29.95,NE,36,12.0,17.0,85,0.00,,,0.00,WUHU216DAVISVP2,2013-04-08 16:43:00,
2013-04-08 11:48:00,31.7,27.7,29.96,NNE,13,9.0,17.0,85,0.00,,,0.00,WUHU216DAVISVP2,2013-04-08 16:48:00,
2013-04-08 11:53:00,31.0,26.7,29.95,North,5,10.0,17.0,84,0.00,,,0.00,WUHU216DAVISVP2,2013-04-08 16:53:00,
2013-04-08 11:58:00,30.6,26.3,29.96,NNE,25,10.0,20.0,84,0.00,,,0.00,WUHU216DAVISVP2,2013-04-08 16:58:00,
2013-04-08 12:03:00,30.7,26.4,29.96,NNE,19,4.0,20.0,84,0.00,,,0.00,WUHU216DAVISVP2,2013-04-08 17:03:00,
2013-04-08 12:08:00,30.3,26.0,29.97,NNW,346,4.0,15.0,84,0.00,,,0.00,WUHU216DAVISVP2,2013-04-08 17:08:00,
2013-04-08 12:13:00,29.2,24.7,29.97,North,349,5.0,10.0,83,0.00,,,0.00,WUHU216DAVISVP2,2013-04-08 17:13:00,
2013-04-08 12:19:00,28.8,24.3,29.97,NNE,28,3.0,13.0,83,0.00,,,0.00,WUHU216DAVISVP2,2013-04-08 17:19:00,
2013-04-08 12:24:00,28.7,24.2,29.97,NNE,17,11.0,19.0,83,0.00,,,0.00,WUHU216DAVISVP2,2013-04-08 17:24:00,
2013-04-08 12:29:00,28.7,24.2,29.97,NNE,20,5.0,19.0,83,0.00,,,0.00,WUHU216DAVISVP2,2013-04-08 17:29:00,
2013-04-08 12:34:00,28.4,23.9,29.98,North,10,0.0,14.0,83,0.00,,,0.00,WUHU216DAVISVP2,2013-04-08 17:34:00,
2013-04-08 12:39:00,28.5,23.7,29.98,NNE,18,8.0,14.0,82,0.00,,,0.00,WUHU216DAVISVP2,2013-04-08 17:39:00,
2013-04-08 12:44:00,27.9,22.8,29.98,NNE,25,7.0,17.0,81,0.00,,,0.00,WUHU216DAVISVP2,2013-04-08 17:44:00,
2013-04-08 12:49:00,28.1,23.3,29.98,NNE,26,7.0,17.0,82,0.00,,,0.00,WUHU216DAVISVP2,2013-04-08 17:49:00,
2013-04-08 12:54:00,27.9,22.8,29.98,NNE,16,9.0,24.0,81,0.00,,,0.00,WUHU216DAVISVP2,2013-04-08 17:54:00,
2013-04-08 13:00:00,27.8,22.7,29.99,North,360,6.0,24.0,81,0.00,,,0.00,WUHU216DAVISVP2,2013-04-08 18:00:00,
2013-04-08 13:05:00,27.6,22.2,29.99,NNE,15,7.0,18.0,80,0.00,,,0.00,WUHU216DAVISVP2,2013-04-08 18:05:00,
2013-04-08 13:10:00,27.8,22.7,30.00,NNE,13,4.0,18.0,81,0.00,,,0.00,WUHU216DAVISVP2,2013-04-08 18:10:00,
2013-04-08 13:15:00,28.1,23.0,30.00,NNW,342,6.0,16.0,81,0.00,,,0.00,WUHU216DAVISVP2,2013-04-08 18:15:00,
2013-04-08 13:20:00,28.1,22.7,30.01,NNE,28,11.0,17.0,80,0.00,,,0.00,WUHU216DAVISVP2,2013-04-08 18:20:00,
2013-04-08 13:25:00,28.0,22.6,30.01,North,5,5.0,18.0,80,0.00,,,0.00,WUHU216DAVISVP2,2013-04-08 18:25:00,
2013-04-08 13:30:00,27.9,22.5,30.01,North,355,9.0,21.0,80,0.00,,,0.00,WUHU216DAVISVP2,2013-04-08 18:30:00,
2013-04-08 13:35:00,28.1,22.4,30.01,NNE,17,16.0,28.0,79,0.00,,,0.00,WUHU216DAVISVP2,2013-04-08 18:35:00,
2013-04-08 13:40:00,27.8,22.1,30.01,NNE,24,15.0,28.0,79,0.00,,,0.00,WUHU216DAVISVP2,2013-04-08 18:40:00,
2013-04-08 13:45:00,27.6,22.0,30.02,NNW,346,9.0,19.0,79,0.00,,,0.00,WUHU216DAVISVP2,2013-04-08 18:45:00,
2013-04-08 13:50:00,27.9,22.2,30.02,NNW,343,11.0,21.0,79,0.00,,,0.00,WUHU216DAVISVP2,2013-04-08 18:50:00,
2013-04-08 13:55:00,27.5,21.6,30.01,NE,52,9.0,22.0,78,0.00,,,0.00,WUHU216DAVISVP2,2013-04-08 18:55:00,
2013-04-08 14:00:00,27.7,21.8,30.02,NNE,15,6.0,22.0,78,0.00,,,0.00,WUHU216DAVISVP2,2013-04-08 19:00:00,
2013-04-08 14:05:00,27.8,21.8,30.02,North,10,7.0,27.0,78,0.00,,,0.00,WUHU216DAVISVP2,2013-04-08 19:05:00,
2013-04-08 14:10:00,28.0,22.0,30.02,North,10,5.0,27.0,78,0.00,,,0.00,WUHU216DAVISVP2,2013-04-08 19:10:00,
2013-04-08 14:15:00,28.1,21.8,30.02,NNE,16,4.0,21.0,77,0.00,,,0.00,WUHU216DAVISVP2,2013-04-08 19:15:00,
2013-04-08 14:20:00,28.3,22.3,30.02,NNE,22,6.0,21.0,78,0.00,,,0.00,WUHU216DAVISVP2,2013-04-08 19:20:00,
2013-04-08 14:25:00,28.0,21.4,30.02,NE,34,10.0,20.0,76,0.00,,,0.00,WUHU216DAVISVP2,2013-04-08 19:25:00,
2013-04-08 14:30:00,28.3,22.3,30.02,NE,40,7.0,24.0,78,0.00,,,0.00,WUHU216DAVISVP2,2013-04-08 19:30:00,
2013-04-08 14:35:00,28.0,21.1,30.02,North,360,14.0,26.0,75,0.00,,,0.00,WUHU216DAVISVP2,2013-04-08 19:35:00,
2013-04-08 14:40:00,28.0,21.7,30.03,North,10,6.0,26.0,77,0.00,,,0.00,WUHU216DAVISVP2,2013-04-08 19:40:00,
2013-04-08 14:45:00,28.2,21.6,30.02,NNE,17,12.0,23.0,76,0.00,,,0.00,WUHU216DAVISVP2,2013-04-08 19:45:00,
2013-04-08 14:50:00,28.3,22.0,30.03,NNE,28,7.0,23.0,77,0.00,,,0.00,WUHU216DAVISVP2,2013-04-08 19:50:00,
2013-04-08 14:56:00,28.1,21.5,30.03,North,355,5.0,21.0,76,0.00,,,0.00,WUHU216DAVISVP2,2013-04-08 19:56:00,
2013-04-08 15:01:00,28.0,21.4,30.03,North,355,5.0,19.0,76,0.00,,,0.00,WUHU216DAVISVP2,2013-04-08 20:01:00,
2013-04-08 15:06:00,28.0,21.4,30.03,North,355,9.0,19.0,76,0.00,,,0.00,WUHU216DAVISVP2,2013-04-08 20:06:00,
2013-04-08 15:11:00,27.9,21.6,30.04,NE,56,16.0,25.0,77,0.00,,,0.00,WUHU216DAVISVP2,2013-04-08 20:11:00,
2013-04-08 15:16:00,28.1,21.5,30.04,North,9,7.0,25.0,76,0.00,,,0.00,WUHU216DAVISVP2,2013-04-08 20:16:00,
2013-04-08 15:21:00,28.1,21.5,30.04,North,5,5.0,24.0,76,0.00,,,0.00,WUHU216DAVISVP2,2013-04-08 20:21:00,
2013-04-08 15:26:00,28.0,21.4,30.05,North,10,14.0,24.0,76,0.00,,,0.00,WUHU216DAVISVP2,2013-04-08 20:26:00,
2013-04-08 15:31:00,28.2,21.6,30.04,NNE,19,8.0,24.0,76,0.00,,,0.00,WUHU216DAVISVP2,2013-04-08 20:31:00,
2013-04-08 15:36:00,28.6,22.0,30.05,NE,46,6.0,22.0,76,0.00,,,0.00,WUHU216DAVISVP2,2013-04-08 20:36:00,
2013-04-08 15:41:00,28.3,21.4,30.06,North,360,2.0,20.0,75,0.00,,,0.00,WUHU216DAVISVP2,2013-04-08 20:41:00,
2013-04-08 15:46:00,28.4,21.5,30.06,NNE,19,4.0,20.0,75,0.00,,,0.00,WUHU216DAVISVP2,2013-04-08 20:46:00,
2013-04-08 15:51:00,28.4,21.5,30.06,NNE,19,15.0,18.0,75,0.00,,,0.00,WUHU216DAVISVP2,2013-04-08 20:51:00,
2013-04-08 15:56:00,28.5,21.9,30.06,NNE,17,1.0,21.0,76,0.00,,,0.00,WUHU216DAVISVP2,2013-04-08 20:56:00,
2013-04-08 16:02:00,28.5,21.9,30.07,NNE,17,20.0,24.0,76,0.00,,,0.00,WUHU216DAVISVP2,2013-04-08 21:02:00,
2013-04-08 16:07:00,28.0,21.1,30.08,NE,42,15.0,24.0,75,0.00,,,0.00,WUHU216DAVISVP2,2013-04-08 21:07:00,
2013-04-08 16:12:00,28.1,21.2,30.08,NE,53,17.0,19.0,75,0.00,,,0.00,WUHU216DAVISVP2,2013-04-08 21:12:00,
2013-04-08 16:17:00,28.3,21.4,30.08,NNE,17,9.0,20.0,75,0.00,,,0.00,WUHU216DAVISVP2,2013-04-08 21:17:00,
2013-04-08 16:22:00,28.0,20.8,30.09,NNE,21,8.0,22.0,74,0.00,,,0.00,WUHU216DAVISVP2,2013-04-08 21:22:00,
2013-04-08 16:27:00,28.1,20.9,30.09,NNW,344,14.0,22.0,74,0.00,,,0.00,WUHU216DAVISVP2,2013-04-08 21:27:00,
2013-04-08 16:32:00,28.0,20.8,30.09,North,360,3.0,23.0,74,0.00,,,0.00,WUHU216DAVISVP2,2013-04-08 21:32:00,
2013-04-08 16:37:00,27.7,20.2,30.09,North,360,9.0,23.0,73,0.00,,,0.00,WUHU216DAVISVP2,2013-04-08 21:37:00,
2013-04-08 16:42:00,27.7,20.8,30.09,NE,35,13.0,21.0,75,0.00,,,0.00,WUHU216DAVISVP2,2013-04-08 21:42:00,
2013-04-08 16:47:00,27.2,20.0,30.09,NNE,19,0.0,21.0,74,0.00,,,0.00,WUHU216DAVISVP2,2013-04-08 21:47:00,
2013-04-08 16:52:00,27.1,19.6,30.09,NE,34,8.0,23.0,73,0.00,,,0.00,WUHU216DAVISVP2,2013-04-08 21:52:00,
2013-04-08 16:57:00,27.4,20.2,30.10,NNE,24,6.0,23.0,74,0.00,,,0.00,WUHU216DAVISVP2,2013-04-08 21:57:00,
2013-04-08 17:02:00,27.4,19.9,30.10,NNE,12,18.0,21.0,73,0.00,,,0.00,WUHU216DAVISVP2,2013-04-08 22:02:00,
2013-04-08 17:07:00,27.3,19.8,30.11,NNE,13,2.0,21.0,73,0.00,,,0.00,WUHU216DAVISVP2,2013-04-08 22:07:00,
2013-04-08 17:12:00,27.5,20.3,30.11,NE,37,2.0,19.0,74,0.00,,,0.00,WUHU216DAVISVP2,2013-04-08 22:12:00,
2013-04-08 17:17:00,27.6,20.4,30.12,NE,47,11.0,19.0,74,0.00,,,0.00,WUHU216DAVISVP2,2013-04-08 22:17:00,
2013-04-08 17:22:00,27.2,19.7,30.12,NNE,14,12.0,20.0,73,0.00,,,0.00,WUHU216DAVISVP2,2013-04-08 22:22:00,
2013-04-08 17:27:00,27.2,19.7,30.13,North,9,11.0,20.0,73,0.00,,,0.00,WUHU216DAVISVP2,2013-04-08 22:27:00,
2013-04-08 17:32:00,27.0,19.9,30.14,North,10,8.0,19.0,74,0.00,,,0.00,WUHU216DAVISVP2,2013-04-08 22:32:00,
2013-04-08 17:37:00,27.0,19.9,30.13,North,350,4.0,17.0,74,0.00,,,0.00,WUHU216DAVISVP2,2013-04-08 22:37:00,
2013-04-08 17:42:00,26.9,19.8,30.14,NNE,30,3.0,18.0,74,0.00,,,0.00,WUHU216DAVISVP2,2013-04-08 22:42:00,
2013-04-08 17:47:00,26.8,19.7,30.14,NNE,19,0.0,21.0,74,0.00,,,0.00,WUHU216DAVISVP2,2013-04-08 22:47:00,
2013-04-08 17:52:00,26.8,20.0,30.15,North,5,7.0,21.0,75,0.00,,,0.00,WUHU216DAVISVP2,2013-04-08 22:52:00,
2013-04-08 17:57:00,26.8,19.7,30.15,North,355,10.0,18.0,74,0.00,,,0.00,WUHU216DAVISVP2,2013-04-08 22:57:00,
2013-04-08 18:02:00,26.5,19.7,30.14,North,5,2.0,21.0,75,0.00,,,0.00,WUHU216DAVISVP2,2013-04-08 23:02:00,
2013-04-08 18:07:00,26.3,19.5,30.14,North,11,2.0,21.0,75,0.00,,,0.00,WUHU216DAVISVP2,2013-04-08 23:07:00,
2013-04-08 18:12:00,26.2,19.4,30.15,North,360,2.0,15.0,75,0.00,,,0.00,WUHU216DAVISVP2,2013-04-08 23:12:00,
2013-04-08 18:17:00,26.2,19.4,30.15,NNE,13,10.0,22.0,75,0.00,,,0.00,WUHU216DAVISVP2,2013-04-08 23:17:00,
2013-04-08 18:22:00,26.1,19.0,30.15,NNE,17,6.0,23.0,74,0.00,,,0.00,WUHU216DAVISVP2,2013-04-08 23:22:00,
2013-04-08 18:27:00,26.1,18.7,30.15,NNE,18,13.0,24.0,73,0.00,,,0.00,WUHU216DAVISVP2,2013-04-08 23:27:00,
2013-04-08 18:33:00,26.1,19.0,30.15,NNE,24,18.0,24.0,74,0.00,,,0.00,WUHU216DAVISVP2,2013-04-08 23:33:00,
2013-04-08 18:38:00,26.2,19.7,30.15,North,355,9.0,20.0,76,0.00,,,0.00,WUHU216DAVISVP2,2013-04-08 23:38:00,
2013-04-08 18:43:00,26.0,19.2,30.16,NNE,28,3.0,19.0,75,0.00,,,0.00,WUHU216DAVISVP2,2013-04-08 23:43:00,
2013-04-08 18:48:00,25.8,19.0,30.16,NNE,12,4.0,15.0,75,0.00,,,0.00,WUHU216DAVISVP2,2013-04-08 23:48:00,
2013-04-08 18:53:00,25.6,19.1,30.16,North,349,9.0,21.0,76,0.00,,,0.00,WUHU216DAVISVP2,2013-04-08 23:53:00,
2013-04-08 18:58:00,25.7,19.2,30.16,NNE,17,9.0,21.0,76,0.00,,,0.00,WUHU216DAVISVP2,2013-04-08 23:58:00,
2013-04-08 19:03:00,25.7,19.2,30.16,North,360,13.0,21.0,76,0.00,,,0.00,WUHU216DAVISVP2,2013-04-09 00:03:00,
2013-04-08 19:08:00,25.5,18.7,30.16,NNE,13,3.0,21.0,75,0.00,,,0.00,WUHU216DAVISVP2,2013-04-09 00:08:00,
2013-04-08 19:13:00,25.3,18.2,30.16,NNE,25,10.0,24.0,74,0.00,,,0.00,WUHU216DAVISVP2,2013-04-09 00:13:00,
2013-04-08 19:18:00,25.0,17.9,30.16,NNW,340,9.0,24.0,74,0.00,,,0.00,WUHU216DAVISVP2,2013-04-09 00:18:00,
2013-04-08 19:23:00,24.8,18.0,30.16,NE,41,18.0,21.0,75,0.00,,,0.00,WUHU216DAVISVP2,2013-04-09 00:23:00,
2013-04-08 19:28:00,24.8,18.3,30.16,North,355,10.0,21.0,76,0.00,,,0.00,WUHU216DAVISVP2,2013-04-09 00:28:00,
2013-04-08 19:33:00,24.4,17.9,30.16,North,5,14.0,21.0,76,0.00,,,0.00,WUHU216DAVISVP2,2013-04-09 00:33:00,
2013-04-08 19:38:00,24.3,18.1,30.16,NNE,21,10.0,21.0,77,0.00,,,0.00,WUHU216DAVISVP2,2013-04-09 00:38:00,
2013-04-08 19:43:00,24.3,18.1,30.16,North,360,7.0,19.0,77,0.00,,,0.00,WUHU216DAVISVP2,2013-04-09 00:43:00,
2013-04-08 19:48:00,24.2,18.1,30.16,North,5,8.0,19.0,77,0.00,,,0.00,WUHU216DAVISVP2,2013-04-09 00:48:00,
2013-04-08 19:53:00,24.0,17.6,30.16,North,360,8.0,19.0,76,0.00,,,0.00,WUHU216DAVISVP2,2013-04-09 00:53:00,
2013-04-08 19:58:00,23.8,17.4,30.16,NNE,15,10.0,22.0,76,0.00,,,0.00,WUHU216DAVISVP2,2013-04-09 00:58:00,
2013-04-08 20:03:00,23.7,17.6,30.17,North,5,4.0,22.0,77,0.00,,,0.00,WUHU216DAVISVP2,2013-04-09 01:03:00,
2013-04-08 20:08:00,23.5,17.1,30.17,NNE,15,1.0,17.0,76,0.00,,,0.00,WUHU216DAVISVP2,2013-04-09 01:08:00,
2013-04-08 20:13:00,23.4,17.3,30.17,North,349,13.0,17.0,77,0.00,,,0.00,WUHU216DAVISVP2,2013-04-09 01:13:00,
2013-04-08 20:18:00,23.2,17.4,30.18,NNE,13,9.0,19.0,78,0.00,,,0.00,WUHU216DAVISVP2,2013-04-09 01:18:00,
2013-04-08 20:23:00,23.0,16.9,30.19,NNE,30,2.0,19.0,77,0.00,,,0.00,WUHU216DAVISVP2,2013-04-09 01:23:00,
2013-04-08 20:28:00,22.9,16.8,30.19,NNE,27,9.0,17.0,77,0.00,,,0.00,WUHU216DAVISVP2,2013-04-09 01:28:00,
2013-04-08 20:33:00,22.7,16.6,30.19,North,360,9.0,13.0,77,0.00,,,0.00,WUHU216DAVISVP2,2013-04-09 01:33:00,
2013-04-08 20:38:00,22.5,16.1,30.19,NNE,24,7.0,15.0,76,0.00,,,0.00,WUHU216DAVISVP2,2013-04-09 01:38:00,
2013-04-08 20:43:00,22.3,15.9,30.20,NNE,32,10.0,21.0,76,0.00,,,0.00,WUHU216DAVISVP2,2013-04-09 01:43:00,
2013-04-08 20:48:00,22.1,15.7,30.20,NE,38,12.0,21.0,76,0.00,,,0.00,WUHU216DAVISVP2,2013-04-09 01:48:00,
2013-04-08 20:53:00,22.1,15.7,30.20,North,360,1.0,20.0,76,0.00,,,0.00,WUHU216DAVISVP2,2013-04-09 01:53:00,
2013-04-08 20:58:00,22.1,15.7,30.21,NNE,30,6.0,20.0,76,0.00,,,0.00,WUHU216DAVISVP2,2013-04-09 01:58:00,
2013-04-08 21:03:00,22.1,15.7,30.22,North,5,5.0,18.0,76,0.00,,,0.00,WUHU216DAVISVP2,2013-04-09 02:03:00,
2013-04-08 21:08:00,22.0,15.6,30.22,North,5,9.0,18.0,76,0.00,,,0.00,WUHU216DAVISVP2,2013-04-09 02:08:00,
2013-04-08 21:13:00,21.8,15.1,30.22,North,5,13.0,20.0,75,0.00,,,0.00,WUHU216DAVISVP2,2013-04-09 02:13:00,
2013-04-08 21:18:00,21.8,15.4,30.23,North,360,10.0,20.0,76,0.00,,,0.00,WUHU216DAVISVP2,2013-04-09 02:18:00,
2013-04-08 21:23:00,21.6,15.2,30.23,North,10,11.0,17.0,76,0.00,,,0.00,WUHU216DAVISVP2,2013-04-09 02:23:00,
2013-04-08 21:28:00,21.5,15.1,30.23,North,360,10.0,16.0,76,0.00,,,0.00,WUHU216DAVISVP2,2013-04-09 02:28:00,
2013-04-08 21:33:00,21.4,15.0,30.23,NNE,17,6.0,16.0,76,0.00,,,0.00,WUHU216DAVISVP2,2013-04-09 02:33:00,
2013-04-08 21:38:00,21.3,14.9,30.24,NNW,337,6.0,18.0,76,0.00,,,0.00,WUHU216DAVISVP2,2013-04-09 02:38:00,
2013-04-08 21:43:00,21.2,14.8,30.24,North,355,7.0,23.0,76,0.00,,,0.00,WUHU216DAVISVP2,2013-04-09 02:43:00,
2013-04-08 21:48:00,21.1,14.7,30.25,NNE,26,1.0,23.0,76,0.00,,,0.00,WUHU216DAVISVP2,2013-04-09 02:48:00,
2013-04-08 21:53:00,21.2,14.8,30.26,NNE,19,6.0,19.0,76,0.00,,,0.00,WUHU216DAVISVP2,2013-04-09 02:53:00,
2013-04-08 21:58:00,21.1,14.4,30.26,NNE,30,12.0,19.0,75,0.00,,,0.00,WUHU216DAVISVP2,2013-04-09 02:58:00,
2013-04-08 22:03:00,21.1,14.4,30.26,North,5,5.0,16.0,75,0.00,,,0.00,WUHU216DAVISVP2,2013-04-09 03:03:00,
2013-04-08 22:08:00,21.0,14.3,30.27,North,360,7.0,18.0,75,0.00,,,0.00,WUHU216DAVISVP2,2013-04-09 03:08:00,
2013-04-08 22:13:00,20.8,13.9,30.27,NNE,25,3.0,18.0,74,0.00,,,0.00,WUHU216DAVISVP2,2013-04-09 03:13:00,
2013-04-08 22:18:00,20.9,14.3,30.28,North,11,6.0,16.0,75,0.00,,,0.00,WUHU216DAVISVP2,2013-04-09 03:18:00,
2013-04-08 22:23:00,20.7,13.8,30.28,NNE,31,8.0,17.0,74,0.00,,,0.00,WUHU216DAVISVP2,2013-04-09 03:23:00,
2013-04-08 22:28:00,20.5,13.3,30.28,NNE,26,10.0,18.0,73,0.00,,,0.00,WUHU216DAVISVP2,2013-04-09 03:28:00,
2013-04-08 22:33:00,20.4,12.5,30.27,NNE,15,15.0,27.0,71,0.00,,,0.00,WUHU216DAVISVP2,2013-04-09 03:33:00,
2013-04-08 22:38:00,20.4,12.5,30.27,North,10,6.0,27.0,71,0.00,,,0.00,WUHU216DAVISVP2,2013-04-09 03:38:00,
2013-04-08 22:43:00,20.3,12.4,30.27,North,360,13.0,21.0,71,0.00,,,0.00,WUHU216DAVISVP2,2013-04-09 03:43:00,
2013-04-08 22:48:00,20.4,12.9,30.28,NNE,30,9.0,20.0,72,0.00,,,0.00,WUHU216DAVISVP2,2013-04-09 03:48:00,
2013-04-08 22:53:00,20.4,12.9,30.28,NNW,342,9.0,18.0,72,0.00,,,0.00,WUHU216DAVISVP2,2013-04-09 03:53:00,
2013-04-08 22:58:00,20.2,12.3,30.29,NNE,22,6.0,21.0,71,0.00,,,0.00,WUHU216DAVISVP2,2013-04-09 03:58:00,
2013-04-08 23:00:00,20.2,12.3,30.29,North,355,9.0,21.0,71,0.00,,,0.00,WUHU216DAVISVP2,2013-04-09 04:00:00,
2013-04-08 23:05:00,20.0,11.8,30.28,NNW,348,13.0,21.0,70,0.00,,,0.00,WUHU216DAVISVP2,2013-04-09 04:05:00,
2013-04-08 23:10:00,19.8,11.6,30.28,North,9,10.0,18.0,70,0.00,,,0.00,WUHU216DAVISVP2,2013-04-09 04:10:00,
2013-04-08 23:15:00,19.8,11.3,30.29,North,5,12.0,22.0,69,0.00,,,0.00,WUHU216DAVISVP2,2013-04-09 04:15:00,
2013-04-08 23:20:00,19.7,11.5,30.29,NNE,14,7.0,22.0,70,0.00,,,0.00,WUHU216DAVISVP2,2013-04-09 04:20:00,
2013-04-08 23:25:00,19.7,11.2,30.29,North,360,10.0,21.0,69,0.00,,,0.00,WUHU216DAVISVP2,2013-04-09 04:25:00,
2013-04-08 23:30:00,19.7,11.5,30.30,NNE,24,14.0,22.0,70,0.00,,,0.00,WUHU216DAVISVP2,2013-04-09 04:30:00,
2013-04-08 23:35:00,19.7,11.2,30.30,NNE,16,12.0,22.0,69,0.00,,,0.00,WUHU216DAVISVP2,2013-04-09 04:35:00,
2013-04-08 23:40:00,19.7,11.2,30.30,North,355,7.0,19.0,69,0.00,,,0.00,WUHU216DAVISVP2,2013-04-09 04:40:00,
2013-04-08 23:45:00,19.6,11.5,30.31,NNE,19,12.0,18.0,70,0.00,,,0.00,WUHU216DAVISVP2,2013-04-09 04:45:00,
2013-04-08 23:50:00,19.4,10.6,30.31,North,360,6.0,22.0,68,0.00,,,0.00,WUHU216DAVISVP2,2013-04-09 04:50:00,
2013-04-08 23:55:00,19.4,10.9,30.31,NNE,21,5.0,22.0,69,0.00,,,0.00,WUHU216DAVISVP2,2013-04-09 04:55:00,